FENGYUN 1C DEB

Satellite information

Favourite Embed

Satellite Type and Status

DEBRISIN ORBIT

Key statistics

Satellite FENGYUN 1C DEB at a glance.

Uptime

9616

Days in orbit

Revolutions

≈ 14.2

Per day

Orbit

SSO

Sun Synchronous Orbit

Inclination

99.6

Latest

Satellite identification and parameters

Extended collection of information and parameters for FENGYUN 1C DEB.

Object identification

Identified? True

Debris? True

Object name: FENGYUN 1C DEB

International designator: 1999-025DXA

Object number (NORAD): 36273

Object ID (CCSDS): 36273

Country: PEOPLES REPUBLIC OF CHINA (PRC)

Current information (Y/N): Y

RCS size: SMALL

Orbital parameters

Period: 101.665 minutes

Inclination: 99.6191 deg

SMA: 7215.651 km

Apoapsis: 906.729 km

Periapsis: 768.302 km

RAAN: 107.8349 deg

Eccentricy: 0.00959213

Argument of periapsis: 268.026 deg

Mean anomaly: 90.9924 deg

Mean motion: 14.16411714 rev/day

Mean motion (dot): 0.00000834 rev/day2

B* drag term: 0.00042597209 1/REarth

Two-line elements (TLE)

Creation date: Sept. 4, 2025, 4:29 a.m.

Reference frame: TEME

Reference center: EARTH

Epoch: Sept. 3, 2025, 8:13 a.m. UTC

TLE line 0: 0 FENGYUN 1C DEB

TLE line 1: 1 36273U 99025DXA 25246.34244524 .00000834 00000-0 42597-3 0 9998

TLE line 2: 2 36273 99.6191 107.8349 0095921 268.0260 90.9924 14.16411714648124

Live tracking on map

Real-time ground track for satellite FENGYUN 1C DEB.

In-orbit conjunctions

A list of the most updated potential collisions computed for object FENGYUN 1C DEB.

Target Orbit TCA Probability of collision Miss distance Type
COSMOS 494 LEO 2025-07-16 11:21:29 0.0001176607 417.0 (m) PAYLOAD
COSMOS 1174 LEO 2025-03-04 22:42:49 0.0002673356 381.0 (m) PAYLOAD
FENGYUN 1C DEB SSO 2024-12-27 17:48:47 0.0002688019 55.0 (m) DEBRIS

Associated space launch

Chinese polar orbiting meteorological satellite

FENGYUN 1C DEB was lifted into orbit during the mission ‘Long March 4B | Feng Yun 1C’, on board a Long March 4B space rocket.

The launch took place on May 10, 1999, 1:33 a.m. from Launch Complex 7.

For more information about the launch, click the button.

Launch to space Long March 4B | Feng Yun 1C
Long March 4B | Feng Yun 1C

Agency: N/A

Status: Launch Successful

Launch date: May 10, 1999, 1:33 a.m. UTC

Rocket: Long March 4B

Launch pad: Launch Complex 7

Location: Taiyuan Satellite Launch Center, People's Republic of China

...

Latest news about this satellite

There are no fresh news available about this satellite. Check back as we update our databases every day.


Newsletter sign-up

Weekly statistics, charts and insights to help you stay on top of the space industry.